Weather History for Osoyoos, BC

Change the Weather History Date:

Tuesday, July 30, 2013

  Actual Average Record
Temperature  
Mean Temperature 74 °F -  
Max Temperature 91 °F - - ()
Min Temperature 57 °F - - ()
Cooling Degree Days 9    
Growing Degree Days 24 (Base 50)    
Moisture  
Dew Point 47 °F    
Average Humidity 42    
Maximum Humidity 72    
Minimum Humidity 10    
Precipitation  
Precipitation 0.00 in - - ()
Sea Level Pressure  
Sea Level Pressure 30.01 in    
Wind  
Wind Speed 2 mph ()    
Max Wind Speed 5 mph    
Max Gust Speed -    
T = Trace of Precipitation, MM = Missing Value Source: Averaged Metar Reports

Daily Weather History Graph

Daily Weather History Graph

Search for Another Location

Airport:

Trip Planner

Search our weather history database for the weather conditions in past years. The results will help you decide how hot, cold, wet, or windy it might be!

Date:

Astronomy

Jul. 30, 2013 Rise Set
Actual Time 5:28 AM PDT 8:39 PM PDT
Civil Twilight 4:50 AM PDT 9:16 PM PDT
Nautical Twilight 4:00 AM PDT 10:06 PM PDT
Astronomical Twilight 2:57 AM PDT 11:08 PM PDT
Moon No Moon Rise 3:02 PM PDT (7/30)
Length of Visible Light 16h 26m
Length of Day
15h 10m
Last Quarter, 40% of the Moon is Illuminated
Jul 30
Last Quarter
Aug 6
New
Aug 14
First Quarter
Aug 20
Full
Aug 28
Last Quarter

Hourly Weather History & Observations

Time (PDT) Temp. Dew Point Humidity Pressure Visibility Wind Dir Wind Speed Gust Speed Precip Events Conditions
12:00 AM 70.7 °F 46.0 °F 41% 29.93 in - NNW 4.6 mph - N/A   Unknown
1:00 AM 65.7 °F 48.9 °F 55% 29.96 in - East 1.2 mph - N/A   Unknown
2:00 AM 59.7 °F 48.6 °F 67% 29.97 in - North 1.2 mph - N/A   Unknown
3:00 AM 64.6 °F 45.9 °F 51% 29.98 in - NNE 3.5 mph - N/A   Unknown
4:00 AM 60.8 °F 48.7 °F 64% 30.00 in - Calm Calm - N/A   Unknown
5:00 AM 58 °F 47 °F 59% 30.02 in - NE 2.3 mph - -  
5:00 AM 58.1 °F 47.5 °F 68% 30.02 in - NE 2.3 mph - N/A   Unknown
6:00 AM 60.6 °F 44.4 °F 55% 30.04 in - NE 2.3 mph - N/A   Unknown
7:00 AM 59.2 °F 50.0 °F 72% 30.06 in - ENE 1.2 mph - N/A   Unknown
8:00 AM 65.8 °F 50.7 °F 58% 30.07 in - ESE 1.2 mph - N/A   Unknown
9:00 AM 70.7 °F 46.4 °F 42% 30.06 in - NNE 2.3 mph - N/A   Unknown
10:00 AM 72.7 °F 46.0 °F 39% 30.06 in - SSW 3.5 mph - N/A   Unknown
11:00 AM 78 °F 49 °F 25% 30.05 in - SSW 2.3 mph - -  
11:00 AM 78.1 °F 48.7 °F 36% 30.05 in - SSW 2.3 mph - N/A   Unknown
12:00 PM 80.2 °F 46.9 °F 31% 30.04 in - SE 2.3 mph - N/A   Unknown
1:00 PM 81.9 °F 46.2 °F 29% 30.03 in - ESE 2.3 mph - N/A   Unknown
2:00 PM 87.1 °F 41.5 °F 20% 30.02 in - SW 3.5 mph - N/A   Unknown
3:00 PM 89.4 °F 40.3 °F 18% 30.01 in - WNW 2.3 mph - N/A   Unknown
4:00 PM 90.5 °F 37.8 °F 16% 29.99 in - West 4.6 mph - N/A   Unknown
5:00 PM 89 °F 39 °F 10% 29.99 in - NNW 3.5 mph - -  
5:00 PM 89.4 °F 39.4 °F 17% 29.99 in - NNW 3.5 mph - N/A   Unknown
6:00 PM 89.2 °F 40.1 °F 18% 29.98 in - NNW 3.5 mph - N/A   Unknown
7:00 PM 87.3 °F 44.8 °F 23% 29.97 in - NNW 3.5 mph - N/A   Unknown
8:00 PM 79.3 °F 54.0 °F 41% 29.99 in - NNE 2.3 mph - N/A   Unknown
9:00 PM 71.8 °F 52.5 °F 51% 30.01 in - NE 2.3 mph - N/A   Unknown
10:00 PM 67.8 °F 51.8 °F 56% 30.03 in - NNE 1.2 mph - N/A   Unknown
11:00 PM 65 °F 52 °F 54% 30.04 in - Calm Calm - -  
11:00 PM 64.9 °F 52.3 °F 64% 30.04 in - Calm Calm - N/A   Unknown